contact:dominique.lefevre@mio.osupytheas.fr, maurice.libes@osupytheas.fr
Project:EMSO Ligure-ouest http://www.emso-fr.org/EMSO-France
Sensor Aquadopp, line 04 Serial AQD8517 
DOI : "https://doi.org/10.17882/74513; https://doi.org/10.17882/83244" 
Title:EMSO Ligure Ouest : Data ligne ALBATROSS capteur AQUADOPP - deploiement 2021
Id,Date,Profondeur,Latitude,Longitude,X_East,Y_North,Z_Up,Amplitude_X,Amplitude_Y,Amplitude_Z,Batterie,SoundSpeed,Heading,Pitch,Roll,Pressure,Temperature,Speed,Direction
, , m, degrees North, degrees East, m.s-1, m.s-1,m.s-1, 1, 1, 1, Volt, m.s-1, degree, degree, degree, dbar, degree_C, m.s-1, degree
01,2022-03-01T21:30:00,500.0,42.79,6.0312,-0.033,-0.043,0.012,61.0,60.0,58.0,12.2,1505.8,63.2,-0.1,0.7,451.914,13.64,0.054,217.5
01,2022-03-01T22:00:00,500.0,42.79,6.0312,-0.052,-0.021,0.0,63.0,57.0,58.0,12.2,1505.8,58.2,-0.1,0.6,451.881,13.64,0.056,248.0
01,2022-03-01T22:30:00,500.0,42.79,6.0312,-0.039,-0.033,0.001,65.0,58.0,57.0,12.2,1505.9,71.4,-0.2,0.6,451.846,13.66,0.051,229.8
01,2022-03-01T23:00:00,500.0,42.79,6.0312,-0.034,-0.035,0.009,62.0,58.0,57.0,12.2,1505.9,70.6,0.0,0.6,451.829,13.67,0.048,224.2
01,2022-03-01T23:30:00,500.0,42.79,6.0312,-0.053,-0.02,0.005,64.0,59.0,58.0,12.2,1505.9,66.6,-0.1,0.7,451.836,13.65,0.056,249.3
01,2022-03-02T00:00:00,500.0,42.79,6.0312,-0.04,-0.023,0.007,63.0,58.0,58.0,12.2,1505.9,66.3,0.0,0.6,451.811,13.66,0.046,240.1
01,2022-03-02T00:30:00,500.0,42.79,6.0312,-0.05,-0.026,-0.001,60.0,57.0,58.0,12.2,1505.9,69.9,0.0,0.7,451.746,13.66,0.056,242.5
01,2022-03-02T01:00:00,500.0,42.79,6.0312,-0.062,-0.013,-0.005,61.0,57.0,57.0,12.2,1505.9,77.3,-0.2,0.7,451.791,13.67,0.063,258.2
01,2022-03-02T01:30:00,500.0,42.79,6.0312,-0.047,-0.03,0.002,60.0,57.0,58.0,12.2,1505.9,67.2,0.0,0.7,451.799,13.67,0.055,237.4
01,2022-03-02T02:00:00,500.0,42.79,6.0312,-0.05,-0.013,-0.001,61.0,58.0,57.0,12.2,1505.9,68.9,-0.1,0.7,451.73,13.66,0.051,255.4
01,2022-03-02T02:30:00,500.0,42.79,6.0312,-0.048,-0.022,-0.005,63.0,58.0,58.0,12.2,1505.9,60.8,-0.1,0.6,451.753,13.66,0.052,245.4
01,2022-03-02T03:00:00,500.0,42.79,6.0312,-0.064,-0.026,-0.004,61.0,58.0,57.0,12.2,1506.0,60.3,-0.1,0.7,451.811,13.68,0.069,247.9
01,2022-03-02T03:30:00,500.0,42.79,6.0312,-0.063,-0.031,0.015,62.0,57.0,58.0,12.2,1506.0,58.6,0.0,0.5,451.836,13.68,0.07,243.8
01,2022-03-02T04:00:00,500.0,42.79,6.0312,-0.062,-0.01,0.017,64.0,57.0,58.0,12.2,1505.9,81.6,-0.1,0.7,451.89,13.67,0.062,260.8
01,2022-03-02T04:30:00,500.0,42.79,6.0312,-0.062,-0.003,0.01,62.0,56.0,59.0,12.2,1505.9,72.2,0.0,0.6,451.9,13.67,0.062,267.2
01,2022-03-02T05:00:00,500.0,42.79,6.0312,-0.067,-0.01,0.01,61.0,58.0,58.0,12.2,1505.9,65.7,-0.2,0.7,451.997,13.66,0.067,261.5
01,2022-03-02T05:30:00,500.0,42.79,6.0312,-0.062,0.0,0.0,61.0,58.0,57.0,12.2,1505.9,71.9,0.0,0.6,452.002,13.67,0.061,270.0
01,2022-03-02T06:00:00,500.0,42.79,6.0312,-0.058,0.001,0.0,60.0,57.0,58.0,12.2,1506.0,80.4,-0.2,0.6,452.052,13.68,0.058,271.0
01,2022-03-02T06:30:00,500.0,42.79,6.0312,-0.037,0.002,0.01,64.0,58.0,58.0,12.2,1505.9,77.4,0.0,0.6,452.092,13.67,0.037,273.1
01,2022-03-02T07:00:00,500.0,42.79,6.0312,-0.061,-0.005,-0.01,60.0,58.0,56.0,12.2,1506.0,92.3,0.0,0.7,452.082,13.68,0.061,265.3
01,2022-03-02T07:30:00,500.0,42.79,6.0312,-0.055,-0.001,0.015,60.0,57.0,56.0,12.2,1506.0,92.3,-0.1,0.7,452.102,13.69,0.055,269.0
01,2022-03-02T08:00:00,500.0,42.79,6.0312,-0.051,-0.001,0.003,61.0,57.0,58.0,12.2,1506.0,85.9,-0.2,0.6,452.08,13.68,0.051,268.9
01,2022-03-02T08:30:00,500.0,42.79,6.0312,-0.048,-0.011,-0.005,62.0,57.0,57.0,12.2,1505.9,80.1,-0.2,0.6,452.094,13.67,0.049,257.1
01,2022-03-02T09:00:00,500.0,42.79,6.0312,-0.038,-0.016,0.013,61.0,56.0,56.0,12.2,1506.0,81.0,0.0,0.6,452.018,13.68,0.041,247.2
01,2022-03-02T09:30:00,500.0,42.79,6.0312,-0.054,-0.012,0.031,61.0,56.0,59.0,12.2,1506.0,90.1,-0.2,0.7,452.079,13.68,0.055,257.5
01,2022-03-02T10:00:00,500.0,42.79,6.0312,-0.034,-0.005,0.007,60.0,57.0,60.0,12.2,1506.0,79.1,-0.2,0.7,452.002,13.68,0.034,261.6
01,2022-03-02T10:30:00,500.0,42.79,6.0312,-0.033,-0.011,-0.01,61.0,57.0,56.0,12.2,1506.0,76.9,-0.1,0.6,451.94,13.68,0.034,251.6
01,2022-03-02T11:00:00,500.0,42.79,6.0312,-0.036,0.0,0.0,61.0,55.0,58.0,12.2,1506.0,64.9,-0.2,0.6,451.983,13.68,0.036,270.0
01,2022-03-02T11:30:00,500.0,42.79,6.0312,-0.027,-0.01,0.007,62.0,56.0,56.0,12.2,1506.0,60.8,-0.1,0.7,451.956,13.69,0.028,249.7
01,2022-03-02T12:00:00,500.0,42.79,6.0312,-0.03,-0.008,0.024,62.0,57.0,56.0,12.2,1506.0,64.4,-0.1,0.6,451.884,13.68,0.031,255.1
01,2022-03-02T12:30:00,500.0,42.79,6.0312,-0.049,-0.014,0.0,61.0,59.0,58.0,12.2,1506.0,61.2,-0.1,0.7,451.915,13.69,0.05,254.1
01,2022-03-02T13:00:00,500.0,42.79,6.0312,-0.034,-0.027,0.016,63.0,58.0,57.0,12.2,1506.0,57.7,-0.1,0.6,451.837,13.69,0.043,231.5
01,2022-03-02T13:30:00,500.0,42.79,6.0312,-0.03,-0.029,-0.01,62.0,58.0,57.0,12.2,1506.0,58.6,-0.1,0.6,451.819,13.69,0.041,226.0
01,2022-03-02T14:00:00,500.0,42.79,6.0312,-0.041,-0.018,-0.01,62.0,57.0,58.0,12.2,1506.0,53.7,-0.2,0.7,451.855,13.69,0.044,246.3
01,2022-03-02T14:30:00,500.0,42.79,6.0312,-0.045,-0.025,0.01,63.0,60.0,60.0,12.2,1506.0,50.8,-0.1,0.7,451.793,13.69,0.051,240.9
01,2022-03-02T15:00:00,500.0,42.79,6.0312,-0.028,-0.014,0.017,64.0,59.0,59.0,12.2,1506.0,53.4,-0.2,0.6,451.823,13.69,0.031,243.4
01,2022-03-02T15:30:00,500.0,42.79,6.0312,-0.046,-0.017,-0.002,64.0,57.0,59.0,12.2,1506.0,68.4,-0.2,0.7,451.782,13.68,0.049,249.7
01,2022-03-02T16:00:00,500.0,42.79,6.0312,-0.029,-0.003,0.007,62.0,58.0,58.0,12.2,1505.9,69.1,-0.1,0.7,451.815,13.67,0.029,264.1
01,2022-03-02T16:30:00,500.0,42.79,6.0312,-0.032,-0.021,0.006,62.0,59.0,58.0,12.2,1506.0,62.0,-0.2,0.7,451.86,13.68,0.038,236.7
01,2022-03-02T17:00:00,500.0,42.79,6.0312,-0.05,-0.018,0.008,62.0,57.0,57.0,12.2,1506.0,53.1,-0.2,0.7,451.869,13.69,0.053,250.2
01,2022-03-02T17:30:00,500.0,42.79,6.0312,-0.036,-0.032,0.001,63.0,57.0,56.0,12.2,1506.0,48.0,-0.1,0.6,451.885,13.69,0.048,228.4
01,2022-03-02T18:00:00,500.0,42.79,6.0312,-0.044,-0.039,0.0,62.0,56.0,57.0,12.2,1506.0,48.8,-0.1,0.6,451.931,13.69,0.058,228.4
01,2022-03-02T18:30:00,500.0,42.79,6.0312,-0.052,-0.041,0.021,62.0,55.0,57.0,12.2,1506.0,53.8,0.0,0.7,451.932,13.69,0.066,231.7
01,2022-03-02T19:00:00,500.0,42.79,6.0312,-0.053,-0.015,0.017,63.0,57.0,57.0,12.2,1506.0,61.8,-0.1,0.6,451.928,13.69,0.055,254.2
01,2022-03-02T19:30:00,500.0,42.79,6.0312,-0.062,-0.015,-0.01,62.0,56.0,58.0,12.2,1506.0,61.6,-0.1,0.6,451.945,13.68,0.063,256.4
01,2022-03-02T20:00:00,500.0,42.79,6.0312,-0.054,-0.008,0.009,63.0,57.0,57.0,12.2,1506.0,70.0,-0.1,0.6,451.968,13.68,0.054,261.6
01,2022-03-02T20:30:00,500.0,42.79,6.0312,-0.049,-0.009,0.009,61.0,58.0,58.0,12.2,1505.9,72.3,-0.1,0.6,451.945,13.67,0.049,259.6
01,2022-03-02T21:00:00,500.0,42.79,6.0312,-0.06,-0.002,0.011,62.0,57.0,56.0,12.2,1505.9,85.1,0.0,0.6,451.92,13.67,0.06,268.1
